Time,TemperatureF,DewpointF,PressureIn,WindDirection,WindDirectionDegrees,WindSpeedMPH,WindSpeedGustMPH,Humidity,HourlyPrecipIn,Conditions,Clouds,dailyrainin,SoftwareType,DateUTC
2013-01-12 00:02:00,39.1,38.3,29.43,WSW,251,2.0,8.0,97,0.00,,---,0.00,VWS V14.01,2013-01-12 06:02:00,
2013-01-12 00:07:00,38.9,38.1,29.42,SSW,213,4.0,8.0,97,0.00,,---,0.00,VWS V14.01,2013-01-12 06:07:00,
2013-01-12 00:12:00,38.6,37.8,29.42,SE,145,3.0,8.0,97,0.00,,---,0.00,VWS V14.01,2013-01-12 06:12:00,
2013-01-12 00:17:00,38.4,37.6,29.42,WSW,255,2.0,8.0,97,0.00,,---,0.00,VWS V14.01,2013-01-12 06:17:00,
2013-01-12 00:22:00,38.3,37.5,29.42,WSW,257,1.0,8.0,97,0.00,,---,0.00,VWS V14.01,2013-01-12 06:22:00,
2013-01-12 00:27:00,38.1,37.1,29.43,West,267,1.0,8.0,96,0.00,,---,0.00,VWS V14.01,2013-01-12 06:27:00,
2013-01-12 00:32:00,37.9,37.1,29.43,West,271,3.0,5.0,97,0.00,,---,0.00,VWS V14.01,2013-01-12 06:32:00,
2013-01-12 00:37:00,37.9,36.9,29.43,SW,234,1.0,5.0,96,0.00,,---,0.00,VWS V14.01,2013-01-12 06:37:00,
2013-01-12 00:42:00,37.8,36.8,29.44,West,267,0.0,6.0,96,0.00,,---,0.00,VWS V14.01,2013-01-12 06:42:00,
2013-01-12 00:47:00,37.6,36.6,29.44,WSW,254,2.0,5.0,96,0.00,,---,0.00,VWS V14.01,2013-01-12 06:47:00,
2013-01-12 00:52:00,37.5,36.5,29.43,West,267,2.0,5.0,96,0.00,,---,0.00,VWS V14.01,2013-01-12 06:52:00,
2013-01-12 00:57:00,37.4,36.4,29.45,SW,233,4.0,6.0,96,0.00,,---,0.00,VWS V14.01,2013-01-12 06:57:00,
2013-01-12 01:02:00,37.3,36.3,29.46,SW,226,1.0,3.0,96,0.00,,---,0.00,VWS V14.01,2013-01-12 07:02:00,
2013-01-12 01:07:00,37.2,36.2,29.46,WSW,257,3.0,6.0,96,0.00,,---,0.00,VWS V14.01,2013-01-12 07:07:00,
2013-01-12 01:12:00,37.1,36.1,29.46,WSW,256,2.0,9.0,96,0.00,,---,0.00,VWS V14.01,2013-01-12 07:12:00,
2013-01-12 01:17:00,36.9,35.6,29.47,SE,142,3.0,13.0,95,0.00,,---,0.00,VWS V14.01,2013-01-12 07:17:00,
2013-01-12 01:22:00,36.8,35.5,29.48,NW,326,10.0,13.0,95,0.00,,---,0.00,VWS V14.01,2013-01-12 07:22:00,
2013-01-12 01:27:00,36.5,35.2,29.48,NW,314,2.0,18.0,95,0.00,,---,0.00,VWS V14.01,2013-01-12 07:27:00,
2013-01-12 01:32:00,36.3,34.7,29.48,WSW,243,3.0,14.0,94,0.00,,---,0.00,VWS V14.01,2013-01-12 07:32:00,
2013-01-12 01:37:00,36.1,34.5,29.47,SW,219,5.0,14.0,94,0.00,,---,0.00,VWS V14.01,2013-01-12 07:37:00,
2013-01-12 01:42:00,35.9,34.1,29.48,WSW,255,11.0,14.0,93,0.00,,---,0.00,VWS V14.01,2013-01-12 07:42:00,
2013-01-12 01:46:00,35.7,33.9,29.49,WSW,240,11.0,14.0,93,0.00,,---,0.00,VWS V14.01,2013-01-12 07:46:00,
2013-01-12 01:51:00,35.5,33.7,29.49,ENE,67,6.0,14.0,93,0.00,,---,0.00,VWS V14.01,2013-01-12 07:51:00,
2013-01-12 01:56:00,35.3,33.2,29.49,SW,222,4.0,14.0,92,0.00,,---,0.00,VWS V14.01,2013-01-12 07:56:00,
2013-01-12 02:01:00,35.2,33.1,29.50,SW,230,6.0,11.0,92,0.00,,---,0.00,VWS V14.01,2013-01-12 08:01:00,
2013-01-12 02:06:00,34.6,32.5,29.51,SSW,194,4.0,12.0,92,0.00,,---,0.00,VWS V14.01,2013-01-12 08:06:00,
2013-01-12 02:11:00,33.5,31.2,29.51,North,353,7.0,17.0,91,0.00,,---,0.00,VWS V14.01,2013-01-12 08:11:00,
2013-01-12 02:16:00,32.8,30.7,29.52,WSW,246,2.0,8.0,92,0.00,,---,0.00,VWS V14.01,2013-01-12 08:16:00,
2013-01-12 02:21:00,32.1,29.8,29.52,SW,231,3.0,10.0,91,0.00,,---,0.00,VWS V14.01,2013-01-12 08:21:00,
2013-01-12 02:26:00,31.4,29.1,29.53,West,266,5.0,10.0,91,0.00,,---,0.00,VWS V14.01,2013-01-12 08:26:00,
2013-01-12 02:31:00,30.7,28.4,29.53,WSW,241,7.0,11.0,91,0.00,,---,0.00,VWS V14.01,2013-01-12 08:31:00,
2013-01-12 02:36:00,30.0,27.4,29.54,NW,309,4.0,20.0,90,0.00,,---,0.00,VWS V14.01,2013-01-12 08:36:00,
2013-01-12 02:41:00,29.2,26.6,29.55,NNW,332,7.0,20.0,90,0.00,,---,0.00,VWS V14.01,2013-01-12 08:41:00,
2013-01-12 02:46:00,28.6,26.0,29.56,WSW,251,6.0,16.0,90,0.00,,---,0.00,VWS V14.01,2013-01-12 08:46:00,
2013-01-12 02:51:00,27.9,25.1,29.56,SSW,212,6.0,16.0,89,0.00,,---,0.00,VWS V14.01,2013-01-12 08:51:00,
2013-01-12 02:56:00,27.2,24.1,29.56,South,174,6.0,16.0,88,0.00,,---,0.00,VWS V14.01,2013-01-12 08:56:00,
2013-01-12 03:01:00,26.8,24.0,29.56,South,177,3.0,10.0,89,0.00,,---,0.00,VWS V14.01,2013-01-12 09:01:00,
2013-01-12 03:06:00,26.5,23.7,29.57,SW,225,1.0,11.0,89,0.00,,---,0.00,VWS V14.01,2013-01-12 09:06:00,
2013-01-12 03:11:00,26.3,23.5,29.57,NW,308,5.0,14.0,89,0.00,,---,0.00,VWS V14.01,2013-01-12 09:11:00,
2013-01-12 03:16:00,26.0,22.9,29.58,WNW,303,1.0,10.0,88,0.00,,---,0.00,VWS V14.01,2013-01-12 09:16:00,
2013-01-12 03:21:00,25.8,22.7,29.58,WSW,247,6.0,11.0,88,0.00,,---,0.00,VWS V14.01,2013-01-12 09:21:00,
2013-01-12 03:26:00,25.6,22.3,29.58,SW,225,5.0,11.0,87,0.00,,---,0.00,VWS V14.01,2013-01-12 09:26:00,
2013-01-12 03:31:00,25.3,21.7,29.59,West,271,4.0,13.0,86,0.00,,---,0.00,VWS V14.01,2013-01-12 09:31:00,
2013-01-12 03:36:00,25.1,21.5,29.60,SSW,212,3.0,15.0,86,0.00,,---,0.00,VWS V14.01,2013-01-12 09:36:00,
2013-01-12 03:41:00,24.9,21.0,29.60,WSW,255,4.0,15.0,85,0.00,,---,0.00,VWS V14.01,2013-01-12 09:41:00,
2013-01-12 03:46:00,24.8,21.2,29.61,NNE,30,1.0,10.0,86,0.00,,---,0.00,VWS V14.01,2013-01-12 09:46:00,
2013-01-12 03:51:00,24.7,21.1,29.61,SE,144,3.0,11.0,86,0.00,,---,0.00,VWS V14.01,2013-01-12 09:51:00,
2013-01-12 03:56:00,24.5,20.6,29.61,WSW,245,4.0,14.0,85,0.00,,---,0.00,VWS V14.01,2013-01-12 09:56:00,
2013-01-12 04:01:00,24.2,20.1,29.62,WSW,243,5.0,16.0,84,0.00,,---,0.00,VWS V14.01,2013-01-12 10:01:00,
2013-01-12 04:06:00,24.1,20.0,29.62,WSW,252,4.0,16.0,84,0.00,,---,0.00,VWS V14.01,2013-01-12 10:06:00,
2013-01-12 04:11:00,23.9,19.8,29.62,SSW,204,10.0,16.0,84,0.00,,---,0.00,VWS V14.01,2013-01-12 10:11:00,
2013-01-12 04:16:00,23.8,19.4,29.62,West,272,14.0,14.0,83,0.00,,---,0.00,VWS V14.01,2013-01-12 10:16:00,
2013-01-12 04:21:00,23.6,18.9,29.63,SE,138,3.0,14.0,82,0.00,,---,0.00,VWS V14.01,2013-01-12 10:21:00,
2013-01-12 04:26:00,23.4,18.4,29.64,SW,233,12.0,15.0,81,0.00,,---,0.00,VWS V14.01,2013-01-12 10:26:00,
2013-01-12 04:31:00,22.9,17.7,29.64,NW,312,4.0,19.0,80,0.00,,---,0.00,VWS V14.01,2013-01-12 10:31:00,
2013-01-12 04:36:00,22.4,16.6,29.65,WSW,248,17.0,19.0,78,0.00,,---,0.00,VWS V14.01,2013-01-12 10:36:00,
2013-01-12 04:41:00,21.9,15.8,29.65,East,95,7.0,19.0,77,0.00,,---,0.00,VWS V14.01,2013-01-12 10:41:00,
2013-01-12 04:46:00,21.5,15.1,29.66,West,273,4.0,16.0,76,0.00,,---,0.00,VWS V14.01,2013-01-12 10:46:00,
2013-01-12 04:51:00,21.1,15.0,29.66,WNW,303,11.0,19.0,77,0.00,,---,0.00,VWS V14.01,2013-01-12 10:51:00,
2013-01-12 04:56:00,20.9,15.1,29.67,SSW,197,7.0,19.0,78,0.00,,---,0.00,VWS V14.01,2013-01-12 10:56:00,
2013-01-12 05:01:00,20.7,14.9,29.67,SW,215,8.0,15.0,78,0.00,,---,0.00,VWS V14.01,2013-01-12 11:01:00,
2013-01-12 05:06:00,20.5,14.7,29.68,South,187,12.0,17.0,78,0.00,,---,0.00,VWS V14.01,2013-01-12 11:06:00,
2013-01-12 05:11:00,20.4,14.9,29.68,WSW,240,1.0,17.0,79,0.00,,---,0.00,VWS V14.01,2013-01-12 11:11:00,
2013-01-12 05:16:00,20.3,14.6,29.69,South,170,6.0,19.0,78,0.00,,---,0.00,VWS V14.01,2013-01-12 11:16:00,
2013-01-12 05:21:00,20.0,14.0,29.70,SW,221,12.0,19.0,77,0.00,,---,0.00,VWS V14.01,2013-01-12 11:21:00,
2013-01-12 05:26:00,19.7,13.4,29.70,WSW,253,13.0,20.0,76,0.00,,---,0.00,VWS V14.01,2013-01-12 11:26:00,
2013-01-12 05:31:00,19.5,13.2,29.70,West,280,5.0,13.0,76,0.00,,---,0.00,VWS V14.01,2013-01-12 11:31:00,
2013-01-12 05:36:00,19.5,13.2,29.71,WNW,293,6.0,23.0,76,0.00,,---,0.00,VWS V14.01,2013-01-12 11:36:00,
2013-01-12 05:41:00,19.4,13.1,29.71,West,259,5.0,23.0,76,0.00,,---,0.00,VWS V14.01,2013-01-12 11:41:00,
2013-01-12 05:46:00,19.2,13.2,29.72,SSE,166,5.0,14.0,77,0.00,,---,0.00,VWS V14.01,2013-01-12 11:46:00,
2013-01-12 05:51:00,19.0,13.0,29.72,SW,216,6.0,15.0,77,0.00,,---,0.00,VWS V14.01,2013-01-12 11:51:00,
2013-01-12 05:56:00,19.0,13.3,29.73,West,277,6.0,15.0,78,0.00,,---,0.00,VWS V14.01,2013-01-12 11:56:00,
2013-01-12 06:01:00,18.9,13.2,29.73,West,277,5.0,15.0,78,0.00,,---,0.00,VWS V14.01,2013-01-12 12:01:00,
2013-01-12 06:06:00,18.9,13.5,29.74,SSW,213,6.0,15.0,79,0.00,,---,0.00,VWS V14.01,2013-01-12 12:06:00,
2013-01-12 06:11:00,18.9,13.2,29.75,NW,308,8.0,15.0,78,0.00,,---,0.00,VWS V14.01,2013-01-12 12:11:00,
2013-01-12 06:16:00,18.9,13.5,29.75,WSW,241,4.0,9.0,79,0.00,,---,0.00,VWS V14.01,2013-01-12 12:16:00,
2013-01-12 06:21:00,18.7,13.3,29.76,SSW,204,7.0,16.0,79,0.00,,---,0.00,VWS V14.01,2013-01-12 12:21:00,
2013-01-12 06:26:00,18.4,12.7,29.76,SW,233,8.0,16.0,78,0.00,,---,0.00,VWS V14.01,2013-01-12 12:26:00,
2013-01-12 06:31:00,18.2,12.2,29.76,WSW,248,5.0,11.0,77,0.00,,---,0.00,VWS V14.01,2013-01-12 12:31:00,
2013-01-12 06:36:00,18.0,11.7,29.77,SSW,198,10.0,15.0,76,0.00,,---,0.00,VWS V14.01,2013-01-12 12:36:00,
2013-01-12 06:41:00,17.8,11.5,29.78,ESE,112,2.0,15.0,76,0.00,,---,0.00,VWS V14.01,2013-01-12 12:41:00,
2013-01-12 06:46:00,17.8,11.8,29.78,West,281,5.0,13.0,77,0.00,,---,0.00,VWS V14.01,2013-01-12 12:46:00,
2013-01-12 06:51:00,17.7,11.7,29.78,SW,215,3.0,13.0,77,0.00,,---,0.00,VWS V14.01,2013-01-12 12:51:00,
2013-01-12 06:56:00,17.7,11.7,29.79,North,356,4.0,15.0,77,0.00,,---,0.00,VWS V14.01,2013-01-12 12:56:00,
2013-01-12 07:01:00,17.6,11.3,29.79,NW,322,2.0,16.0,76,0.00,,---,0.00,VWS V14.01,2013-01-12 13:01:00,
2013-01-12 07:06:00,17.5,11.2,29.80,WSW,249,3.0,24.0,76,0.00,,---,0.00,VWS V14.01,2013-01-12 13:06:00,
2013-01-12 07:11:00,17.4,10.9,29.80,WNW,293,5.0,24.0,75,0.00,,---,0.00,VWS V14.01,2013-01-12 13:11:00,
2013-01-12 07:16:00,17.3,11.1,29.81,West,269,4.0,11.0,76,0.00,,---,0.00,VWS V14.01,2013-01-12 13:16:00,
2013-01-12 07:21:00,17.3,11.1,29.81,WSW,253,3.0,12.0,76,0.00,,---,0.00,VWS V14.01,2013-01-12 13:21:00,
2013-01-12 07:26:00,17.2,11.2,29.82,West,276,4.0,12.0,77,0.00,,---,0.00,VWS V14.01,2013-01-12 13:26:00,
2013-01-12 07:31:00,17.0,10.8,29.82,South,175,7.0,10.0,76,0.00,,---,0.00,VWS V14.01,2013-01-12 13:31:00,
2013-01-12 07:36:00,16.8,10.3,29.83,West,280,4.0,13.0,75,0.00,,---,0.00,VWS V14.01,2013-01-12 13:36:00,
2013-01-12 07:41:00,16.6,10.1,29.84,WNW,289,4.0,13.0,75,0.00,,---,0.00,VWS V14.01,2013-01-12 13:41:00,
2013-01-12 07:46:00,16.4,10.2,29.84,West,268,4.0,12.0,76,0.00,,---,0.00,VWS V14.01,2013-01-12 13:46:00,
2013-01-12 07:51:00,16.2,10.0,29.84,ENE,69,5.0,12.0,76,0.00,,---,0.00,VWS V14.01,2013-01-12 13:51:00,
2013-01-12 07:56:00,16.2,10.0,29.84,West,261,3.0,12.0,76,0.00,,---,0.00,VWS V14.01,2013-01-12 13:56:00,
2013-01-12 08:01:00,16.1,9.9,29.84,SW,219,4.0,9.0,76,0.00,,---,0.00,VWS V14.01,2013-01-12 14:01:00,
2013-01-12 08:06:00,16.0,10.1,29.85,WSW,255,6.0,9.0,77,0.00,,---,0.00,VWS V14.01,2013-01-12 14:06:00,
2013-01-12 08:11:00,16.0,10.4,29.86,WSW,246,4.0,9.0,78,0.00,,---,0.00,VWS V14.01,2013-01-12 14:11:00,
2013-01-12 08:16:00,16.0,10.4,29.86,SSW,202,2.0,10.0,78,0.00,,---,0.00,VWS V14.01,2013-01-12 14:16:00,
2013-01-12 08:21:00,15.9,10.3,29.86,WNW,285,3.0,10.0,78,0.00,,---,0.00,VWS V14.01,2013-01-12 14:21:00,
2013-01-12 08:26:00,15.8,9.9,29.87,WSW,246,2.0,13.0,77,0.00,,---,0.00,VWS V14.01,2013-01-12 14:26:00,
2013-01-12 08:31:00,15.7,10.1,29.88,West,269,2.0,12.0,78,0.00,,---,0.00,VWS V14.01,2013-01-12 14:31:00,
2013-01-12 08:36:00,15.6,10.0,29.87,WNW,299,4.0,12.0,78,0.00,,---,0.00,VWS V14.01,2013-01-12 14:36:00,
2013-01-12 08:41:00,15.5,10.2,29.88,West,267,5.0,12.0,79,0.00,,---,0.00,VWS V14.01,2013-01-12 14:41:00,
2013-01-12 08:46:00,15.4,10.1,29.88,WSW,237,7.0,14.0,79,0.00,,---,0.00,VWS V14.01,2013-01-12 14:46:00,
2013-01-12 08:51:00,15.3,10.2,29.89,WNW,299,3.0,14.0,80,0.00,,---,0.00,VWS V14.01,2013-01-12 14:51:00,
2013-01-12 08:56:00,15.2,9.9,29.89,East,79,4.0,14.0,79,0.00,,---,0.00,VWS V14.01,2013-01-12 14:56:00,
2013-01-12 09:01:00,15.1,9.8,29.89,SW,218,2.0,9.0,79,0.00,,---,0.00,VWS V14.01,2013-01-12 15:01:00,
2013-01-12 09:06:00,15.2,9.6,29.89,West,277,4.0,9.0,78,0.00,,---,0.00,VWS V14.01,2013-01-12 15:06:00,
2013-01-12 09:11:00,15.2,9.3,29.89,WNW,286,4.0,14.0,77,0.00,,---,0.00,VWS V14.01,2013-01-12 15:11:00,
2013-01-12 09:16:00,15.2,9.6,29.90,WSW,256,2.0,17.0,78,0.00,,---,0.00,VWS V14.01,2013-01-12 15:16:00,
2013-01-12 09:21:00,15.3,9.7,29.90,SW,222,5.0,17.0,78,0.00,,---,0.00,VWS V14.01,2013-01-12 15:21:00,
2013-01-12 09:26:00,14.9,8.4,29.91,SW,236,4.0,17.0,75,0.00,,---,0.00,VWS V14.01,2013-01-12 15:26:00,
2013-01-12 09:31:00,14.5,7.7,29.91,SSE,147,5.0,9.0,74,0.00,,---,0.00,VWS V14.01,2013-01-12 15:31:00,
2013-01-12 09:36:00,14.3,7.8,29.92,SW,222,2.0,10.0,75,0.00,,---,0.00,VWS V14.01,2013-01-12 15:36:00,
2013-01-12 09:41:00,14.2,8.0,29.92,WNW,282,6.0,12.0,76,0.00,,---,0.00,VWS V14.01,2013-01-12 15:41:00,
2013-01-12 09:46:00,14.3,8.4,29.92,SW,236,1.0,8.0,77,0.00,,---,0.00,VWS V14.01,2013-01-12 15:46:00,
2013-01-12 09:51:00,14.4,8.2,29.93,WSW,251,6.0,11.0,76,0.00,,---,0.00,VWS V14.01,2013-01-12 15:51:00,
2013-01-12 09:56:00,14.5,8.3,29.93,SSW,197,3.0,11.0,76,0.00,,---,0.00,VWS V14.01,2013-01-12 15:56:00,
2013-01-12 10:01:00,14.9,8.7,29.93,SW,229,8.0,8.0,76,0.00,,---,0.00,VWS V14.01,2013-01-12 16:01:00,
2013-01-12 10:06:00,15.2,8.4,29.93,WSW,249,4.0,10.0,74,0.00,,---,0.00,VWS V14.01,2013-01-12 16:06:00,
2013-01-12 10:11:00,15.3,8.2,29.94,NNW,335,2.0,17.0,73,0.00,,---,0.00,VWS V14.01,2013-01-12 16:11:00,
2013-01-12 10:16:00,15.0,7.3,29.94,SSE,155,2.0,13.0,71,0.00,,---,0.00,VWS V14.01,2013-01-12 16:16:00,
2013-01-12 10:21:00,14.6,6.9,29.94,WNW,298,5.0,14.0,71,0.00,,---,0.00,VWS V14.01,2013-01-12 16:21:00,
2013-01-12 10:26:00,14.6,7.2,29.94,WNW,294,5.0,14.0,72,0.00,,---,0.00,VWS V14.01,2013-01-12 16:26:00,
2013-01-12 10:31:00,14.9,7.2,29.95,SW,225,12.0,12.0,71,0.00,,---,0.00,VWS V14.01,2013-01-12 16:31:00,
2013-01-12 10:36:00,14.7,6.7,29.95,NE,51,8.0,15.0,70,0.00,,---,0.00,VWS V14.01,2013-01-12 16:36:00,
2013-01-12 10:41:00,14.8,7.4,29.95,SSW,212,5.0,15.0,72,0.00,,---,0.00,VWS V14.01,2013-01-12 16:41:00,
2013-01-12 10:46:00,14.8,6.8,29.96,SW,216,7.0,10.0,70,0.00,,---,0.00,VWS V14.01,2013-01-12 16:46:00,
2013-01-12 10:51:00,14.4,6.4,29.97,West,264,5.0,14.0,70,0.00,,---,0.00,VWS V14.01,2013-01-12 16:51:00,
2013-01-12 10:56:00,14.3,6.6,29.97,WSW,255,6.0,15.0,71,0.00,,---,0.00,VWS V14.01,2013-01-12 16:56:00,
2013-01-12 11:01:00,14.4,6.7,29.97,SSW,199,3.0,9.0,71,0.00,,---,0.00,VWS V14.01,2013-01-12 17:01:00,
2013-01-12 11:06:00,14.8,6.8,29.97,WSW,243,4.0,13.0,70,0.00,,---,0.00,VWS V14.01,2013-01-12 17:06:00,
2013-01-12 11:11:00,14.9,6.9,29.98,West,266,2.0,13.0,70,0.00,,---,0.00,VWS V14.01,2013-01-12 17:11:00,
2013-01-12 11:16:00,14.8,7.1,29.97,North,5,6.0,15.0,71,0.00,,---,0.00,VWS V14.01,2013-01-12 17:16:00,
2013-01-12 11:21:00,14.4,6.7,29.98,SSE,164,4.0,15.0,71,0.00,,---,0.00,VWS V14.01,2013-01-12 17:21:00,
2013-01-12 11:26:00,14.3,6.6,29.97,SW,230,2.0,15.0,71,0.00,,---,0.00,VWS V14.01,2013-01-12 17:26:00,
2013-01-12 11:31:00,14.8,7.4,29.97,West,265,8.0,9.0,72,0.00,,---,0.00,VWS V14.01,2013-01-12 17:31:00,
2013-01-12 11:36:00,14.9,7.2,29.97,West,275,6.0,12.0,71,0.00,,---,0.00,VWS V14.01,2013-01-12 17:36:00,
2013-01-12 11:41:00,14.4,6.4,29.96,NW,306,3.0,13.0,70,0.00,,---,0.00,VWS V14.01,2013-01-12 17:41:00,
2013-01-12 11:46:00,14.2,6.5,29.97,WNW,284,8.0,11.0,71,0.00,,---,0.00,VWS V14.01,2013-01-12 17:46:00,
2013-01-12 11:51:00,14.0,6.7,29.98,East,92,2.0,11.0,72,0.00,,---,0.00,VWS V14.01,2013-01-12 17:51:00,
2013-01-12 11:56:00,14.0,6.3,29.97,West,264,9.0,12.0,71,0.00,,---,0.00,VWS V14.01,2013-01-12 17:56:00,
2013-01-12 12:01:00,14.3,6.6,29.98,SSW,212,4.0,13.0,71,0.00,,---,0.00,VWS V14.01,2013-01-12 18:01:00,
2013-01-12 12:06:00,14.3,6.6,29.98,SW,216,10.0,14.0,71,0.00,,---,0.00,VWS V14.01,2013-01-12 18:06:00,
2013-01-12 12:11:00,14.4,6.4,29.98,SW,233,5.0,14.0,70,0.00,,---,0.00,VWS V14.01,2013-01-12 18:11:00,
2013-01-12 12:16:00,14.2,6.2,29.99,SSW,212,3.0,12.0,70,0.00,,---,0.00,VWS V14.01,2013-01-12 18:16:00,
2013-01-12 12:21:00,14.8,7.1,29.99,South,190,5.0,13.0,71,0.00,,---,0.00,VWS V14.01,2013-01-12 18:21:00,
2013-01-12 12:26:00,14.6,6.3,29.98,NW,313,6.0,14.0,69,0.00,,---,0.00,VWS V14.01,2013-01-12 18:26:00,
2013-01-12 12:31:00,14.2,6.2,29.98,WNW,294,3.0,15.0,70,0.00,,---,0.00,VWS V14.01,2013-01-12 18:31:00,
2013-01-12 12:36:00,14.0,6.3,29.98,WSW,258,3.0,15.0,71,0.00,,---,0.00,VWS V14.01,2013-01-12 18:36:00,
2013-01-12 12:41:00,13.7,5.8,29.99,WSW,254,1.0,15.0,70,0.00,,---,0.00,VWS V14.01,2013-01-12 18:41:00,
2013-01-12 12:46:00,13.9,6.6,29.99,SW,233,7.0,10.0,72,0.00,,---,0.00,VWS V14.01,2013-01-12 18:46:00,
2013-01-12 12:51:00,14.1,6.4,29.99,SW,216,3.0,12.0,71,0.00,,---,0.00,VWS V14.01,2013-01-12 18:51:00,
2013-01-12 12:56:00,14.4,6.4,29.99,West,261,4.0,18.0,70,0.00,,---,0.00,VWS V14.01,2013-01-12 18:56:00,
2013-01-12 13:01:00,14.4,6.1,29.99,SSW,198,4.0,13.0,69,0.00,,---,0.00,VWS V14.01,2013-01-12 19:01:00,
2013-01-12 13:06:00,14.7,7.0,29.99,WNW,286,6.0,13.0,71,0.00,,---,0.00,VWS V14.01,2013-01-12 19:06:00,
2013-01-12 13:11:00,14.7,6.7,30.00,SSW,192,3.0,13.0,70,0.00,,---,0.00,VWS V14.01,2013-01-12 19:11:00,
2013-01-12 13:16:00,14.6,6.6,30.00,SW,230,3.0,10.0,70,0.00,,---,0.00,VWS V14.01,2013-01-12 19:16:00,
2013-01-12 13:21:00,14.3,6.0,30.01,WNW,291,14.0,19.0,69,0.00,,---,0.00,VWS V14.01,2013-01-12 19:21:00,
2013-01-12 13:26:00,14.0,5.7,30.02,WNW,294,4.0,19.0,69,0.00,,---,0.00,VWS V14.01,2013-01-12 19:26:00,
2013-01-12 13:31:00,13.8,5.5,30.02,NW,312,9.0,12.0,69,0.00,,---,0.00,VWS V14.01,2013-01-12 19:31:00,
2013-01-12 13:36:00,13.6,5.3,30.02,NNW,339,3.0,13.0,69,0.00,,---,0.00,VWS V14.01,2013-01-12 19:36:00,
2013-01-12 13:41:00,13.6,5.7,30.03,West,263,5.0,13.0,70,0.00,,---,0.00,VWS V14.01,2013-01-12 19:41:00,
2013-01-12 13:46:00,13.7,6.1,30.03,West,264,5.0,11.0,71,0.00,,---,0.00,VWS V14.01,2013-01-12 19:46:00,
2013-01-12 13:51:00,14.0,6.3,30.03,West,275,9.0,11.0,71,0.00,,---,0.00,VWS V14.01,2013-01-12 19:51:00,
2013-01-12 13:56:00,13.9,5.6,30.03,WSW,242,2.0,12.0,69,0.00,,---,0.00,VWS V14.01,2013-01-12 19:56:00,
2013-01-12 14:01:00,13.7,5.4,30.03,WSW,249,7.0,11.0,69,0.00,,---,0.00,VWS V14.01,2013-01-12 20:01:00,
2013-01-12 14:06:00,13.4,5.5,30.03,WSW,245,5.0,11.0,70,0.00,,---,0.00,VWS V14.01,2013-01-12 20:06:00,
2013-01-12 14:11:00,13.3,5.7,30.03,West,274,2.0,11.0,71,0.00,,---,0.00,VWS V14.01,2013-01-12 20:11:00,
2013-01-12 14:16:00,13.6,6.3,30.04,NNW,341,5.0,10.0,72,0.00,,---,0.00,VWS V14.01,2013-01-12 20:16:00,
2013-01-12 14:21:00,13.6,5.7,30.03,SSW,194,5.0,14.0,70,0.00,,---,0.00,VWS V14.01,2013-01-12 20:21:00,
2013-01-12 14:26:00,13.5,5.2,30.03,SW,226,12.0,14.0,69,0.00,,---,0.00,VWS V14.01,2013-01-12 20:26:00,
2013-01-12 14:31:00,13.3,5.1,30.04,SSW,210,5.0,13.0,69,0.00,,---,0.00,VWS V14.01,2013-01-12 20:31:00,
2013-01-12 14:36:00,13.3,5.1,30.05,WSW,246,6.0,13.0,69,0.00,,---,0.00,VWS V14.01,2013-01-12 20:36:00,
2013-01-12 14:41:00,13.2,4.9,30.05,SSW,211,4.0,13.0,69,0.00,,---,0.00,VWS V14.01,2013-01-12 20:41:00,
2013-01-12 14:46:00,13.1,5.2,30.05,West,273,3.0,9.0,70,0.00,,---,0.00,VWS V14.01,2013-01-12 20:46:00,
2013-01-12 14:51:00,13.2,5.3,30.05,West,267,7.0,9.0,70,0.00,,---,0.00,VWS V14.01,2013-01-12 20:51:00,
2013-01-12 14:56:00,13.4,5.1,30.05,SSW,195,9.0,11.0,69,0.00,,---,0.00,VWS V14.01,2013-01-12 20:56:00,
2013-01-12 15:01:00,13.4,5.1,30.05,West,267,4.0,8.0,69,0.00,,---,0.00,VWS V14.01,2013-01-12 21:01:00,
2013-01-12 15:06:00,13.4,5.8,30.04,WNW,294,4.0,11.0,71,0.00,,---,0.00,VWS V14.01,2013-01-12 21:06:00,
2013-01-12 15:11:00,13.3,5.1,30.05,WSW,253,4.0,11.0,69,0.00,,---,0.00,VWS V14.01,2013-01-12 21:11:00,
2013-01-12 15:16:00,13.0,4.4,30.05,SSW,206,5.0,11.0,68,0.00,,---,0.00,VWS V14.01,2013-01-12 21:16:00,
2013-01-12 15:21:00,12.7,4.5,30.05,North,11,4.0,13.0,69,0.00,,---,0.00,VWS V14.01,2013-01-12 21:21:00,
2013-01-12 15:26:00,12.4,3.9,30.05,NNE,13,3.0,13.0,68,0.00,,---,0.00,VWS V14.01,2013-01-12 21:26:00,
2013-01-12 15:31:00,12.3,4.1,30.06,WSW,240,2.0,8.0,69,0.00,,---,0.00,VWS V14.01,2013-01-12 21:31:00,
2013-01-12 15:36:00,12.5,4.6,30.06,WNW,286,3.0,8.0,70,0.00,,---,0.00,VWS V14.01,2013-01-12 21:36:00,
2013-01-12 15:41:00,12.5,4.6,30.06,SSW,212,6.0,9.0,70,0.00,,---,0.00,VWS V14.01,2013-01-12 21:41:00,
2013-01-12 15:46:00,12.3,4.7,30.06,SSE,168,3.0,7.0,71,0.00,,---,0.00,VWS V14.01,2013-01-12 21:46:00,
2013-01-12 15:51:00,12.1,4.8,30.06,NW,306,3.0,12.0,72,0.00,,---,0.00,VWS V14.01,2013-01-12 21:51:00,
2013-01-12 15:56:00,11.9,4.9,30.05,WNW,303,1.0,12.0,73,0.00,,---,0.00,VWS V14.01,2013-01-12 21:56:00,
2013-01-12 16:01:00,11.9,5.2,30.05,WNW,286,1.0,8.0,74,0.00,,---,0.00,VWS V14.01,2013-01-12 22:01:00,
2013-01-12 16:06:00,11.7,4.4,30.05,WNW,294,1.0,10.0,72,0.00,,---,0.00,VWS V14.01,2013-01-12 22:06:00,
2013-01-12 16:11:00,11.5,3.9,30.06,WNW,293,1.0,10.0,71,0.00,,---,0.00,VWS V14.01,2013-01-12 22:11:00,
2013-01-12 16:16:00,11.2,3.7,30.08,SSE,155,2.0,7.0,71,0.00,,---,0.00,VWS V14.01,2013-01-12 22:16:00,
2013-01-12 16:21:00,10.9,3.4,30.07,NW,317,2.0,9.0,71,0.00,,---,0.00,VWS V14.01,2013-01-12 22:21:00,
2013-01-12 16:26:00,10.7,3.5,30.05,West,280,3.0,9.0,72,0.00,,---,0.00,VWS V14.01,2013-01-12 22:26:00,
2013-01-12 16:31:00,10.6,3.1,30.07,West,274,2.0,10.0,71,0.00,,---,0.00,VWS V14.01,2013-01-12 22:31:00,
2013-01-12 16:36:00,10.5,3.3,30.07,WSW,237,3.0,10.0,72,0.00,,---,0.00,VWS V14.01,2013-01-12 22:36:00,
2013-01-12 16:41:00,10.4,3.2,30.07,West,275,2.0,10.0,72,0.00,,---,0.00,VWS V14.01,2013-01-12 22:41:00,
2013-01-12 16:46:00,10.4,3.2,30.09,SW,223,2.0,8.0,72,0.00,,---,0.00,VWS V14.01,2013-01-12 22:46:00,
2013-01-12 16:51:00,10.2,2.7,30.09,WSW,258,2.0,8.0,71,0.00,,---,0.00,VWS V14.01,2013-01-12 22:51:00,
2013-01-12 16:56:00,10.2,2.7,30.09,SSW,199,4.0,8.0,71,0.00,,---,0.00,VWS V14.01,2013-01-12 22:56:00,
2013-01-12 17:01:00,10.0,2.8,30.10,West,275,2.0,7.0,72,0.00,,---,0.00,VWS V14.01,2013-01-12 23:01:00,
2013-01-12 17:06:00,10.0,2.8,30.11,NNW,329,2.0,8.0,72,0.00,,---,0.00,VWS V14.01,2013-01-12 23:06:00,
2013-01-12 17:11:00,9.8,2.6,30.11,WNW,282,3.0,8.0,72,0.00,,---,0.00,VWS V14.01,2013-01-12 23:11:00,
2013-01-12 17:16:00,9.7,2.5,30.12,WSW,239,4.0,9.0,72,0.00,,---,0.00,VWS V14.01,2013-01-12 23:16:00,
2013-01-12 17:21:00,9.7,2.8,30.12,SW,233,1.0,9.0,73,0.00,,---,0.00,VWS V14.01,2013-01-12 23:21:00,
2013-01-12 17:26:00,9.7,3.1,30.12,WSW,243,1.0,9.0,74,0.00,,---,0.00,VWS V14.01,2013-01-12 23:26:00,
2013-01-12 17:31:00,9.7,2.8,30.11,WNW,301,1.0,7.0,73,0.00,,---,0.00,VWS V14.01,2013-01-12 23:31:00,
2013-01-12 17:36:00,9.6,2.7,30.10,WNW,298,5.0,7.0,73,0.00,,---,0.00,VWS V14.01,2013-01-12 23:36:00,
2013-01-12 17:41:00,9.5,2.6,30.10,WNW,298,1.0,10.0,73,0.00,,---,0.00,VWS V14.01,2013-01-12 23:41:00,
2013-01-12 17:46:00,9.4,2.5,30.10,West,277,3.0,6.0,73,0.00,,---,0.00,VWS V14.01,2013-01-12 23:46:00,
2013-01-12 17:51:00,9.2,2.6,30.10,West,277,1.0,7.0,74,0.00,,---,0.00,VWS V14.01,2013-01-12 23:51:00,
2013-01-12 17:56:00,9.1,2.5,30.09,WSW,240,3.0,7.0,74,0.00,,---,0.00,VWS V14.01,2013-01-12 23:56:00,
2013-01-12 18:01:00,9.1,2.8,30.10,WNW,289,4.0,5.0,75,0.00,,---,0.00,VWS V14.01,2013-01-13 00:01:00,
2013-01-12 18:06:00,8.9,2.3,30.10,WSW,245,4.0,7.0,74,0.00,,---,0.00,VWS V14.01,2013-01-13 00:06:00,
2013-01-12 18:11:00,8.8,1.9,30.10,NW,311,3.0,10.0,73,0.00,,---,0.00,VWS V14.01,2013-01-13 00:11:00,
2013-01-12 18:16:00,8.7,1.8,30.10,West,280,2.0,8.0,73,0.00,,---,0.00,VWS V14.01,2013-01-13 00:16:00,
2013-01-12 18:21:00,8.6,1.7,30.10,WNW,303,2.0,8.0,73,0.00,,---,0.00,VWS V14.01,2013-01-13 00:21:00,
2013-01-12 18:26:00,8.6,2.0,30.10,WNW,284,4.0,8.0,74,0.00,,---,0.00,VWS V14.01,2013-01-13 00:26:00,
2013-01-12 18:31:00,8.5,1.9,30.10,West,280,3.0,5.0,74,0.00,,---,0.00,VWS V14.01,2013-01-13 00:31:00,
2013-01-12 18:36:00,8.4,1.5,30.10,West,263,5.0,7.0,73,0.00,,---,0.00,VWS V14.01,2013-01-13 00:36:00,
2013-01-12 18:41:00,8.3,1.7,30.10,WNW,291,1.0,7.0,74,0.00,,---,0.00,VWS V14.01,2013-01-13 00:41:00,
2013-01-12 18:46:00,8.3,1.7,30.11,West,265,2.0,5.0,74,0.00,,---,0.00,VWS V14.01,2013-01-13 00:46:00,
2013-01-12 18:51:00,8.2,1.6,30.11,West,281,1.0,5.0,74,0.00,,---,0.00,VWS V14.01,2013-01-13 00:51:00,
2013-01-12 18:56:00,8.1,1.5,30.11,WNW,284,1.0,9.0,74,0.00,,---,0.00,VWS V14.01,2013-01-13 00:56:00,
2013-01-12 19:01:00,8.1,1.5,30.12,WSW,252,3.0,5.0,74,0.00,,---,0.00,VWS V14.01,2013-01-13 01:01:00,
2013-01-12 19:06:00,8.1,1.5,30.12,WNW,282,1.0,6.0,74,0.00,,---,0.00,VWS V14.01,2013-01-13 01:06:00,
2013-01-12 19:11:00,8.1,1.8,30.11,West,265,3.0,6.0,75,0.00,,---,0.00,VWS V14.01,2013-01-13 01:11:00,
2013-01-12 19:16:00,8.1,1.5,30.12,WSW,254,2.0,6.0,74,0.00,,---,0.00,VWS V14.01,2013-01-13 01:16:00,
2013-01-12 19:21:00,8.0,1.5,30.12,WNW,299,1.0,7.0,74,0.00,,---,0.00,VWS V14.01,2013-01-13 01:21:00,
2013-01-12 19:26:00,8.0,1.7,30.12,SSW,202,2.0,7.0,75,0.00,,---,0.00,VWS V14.01,2013-01-13 01:26:00,
2013-01-12 19:31:00,8.0,1.7,30.11,WSW,240,3.0,7.0,75,0.00,,---,0.00,VWS V14.01,2013-01-13 01:31:00,
2013-01-12 19:36:00,7.9,1.6,30.12,WNW,294,1.0,7.0,75,0.00,,---,0.00,VWS V14.01,2013-01-13 01:36:00,
2013-01-12 19:41:00,7.9,1.9,30.12,WNW,287,1.0,7.0,76,0.00,,---,0.00,VWS V14.01,2013-01-13 01:41:00,
2013-01-12 19:46:00,7.9,1.6,30.13,WSW,250,0.0,6.0,75,0.00,,---,0.00,VWS V14.01,2013-01-13 01:46:00,
2013-01-12 19:51:00,7.8,1.8,30.13,West,273,2.0,6.0,76,0.00,,---,0.00,VWS V14.01,2013-01-13 01:51:00,
2013-01-12 19:56:00,7.8,1.8,30.14,WSW,246,4.0,9.0,76,0.00,,---,0.00,VWS V14.01,2013-01-13 01:56:00,
2013-01-12 20:01:00,7.8,1.8,30.14,West,274,1.0,5.0,76,0.00,,---,0.00,VWS V14.01,2013-01-13 02:01:00,
2013-01-12 20:06:00,7.8,1.8,30.14,NW,309,2.0,7.0,76,0.00,,---,0.00,VWS V14.01,2013-01-13 02:06:00,
2013-01-12 20:11:00,7.9,1.9,30.13,WNW,296,2.0,7.0,76,0.00,,---,0.00,VWS V14.01,2013-01-13 02:11:00,
2013-01-12 20:16:00,8.0,2.0,30.14,West,270,0.0,5.0,76,0.00,,---,0.00,VWS V14.01,2013-01-13 02:16:00,
2013-01-12 20:21:00,8.0,2.0,30.13,WSW,257,2.0,5.0,76,0.00,,---,0.00,VWS V14.01,2013-01-13 02:21:00,
2013-01-12 20:26:00,8.0,2.0,30.14,West,277,3.0,6.0,76,0.00,,---,0.00,VWS V14.01,2013-01-13 02:26:00,
2013-01-12 20:31:00,8.0,2.0,30.14,WNW,288,5.0,6.0,76,0.00,,---,0.00,VWS V14.01,2013-01-13 02:31:00,
2013-01-12 20:36:00,8.0,1.7,30.14,West,268,0.0,8.0,75,0.00,,---,0.00,VWS V14.01,2013-01-13 02:36:00,
2013-01-12 20:41:00,8.1,2.1,30.14,WNW,292,0.0,8.0,76,0.00,,---,0.00,VWS V14.01,2013-01-13 02:41:00,
2013-01-12 20:46:00,8.1,1.8,30.15,WSW,251,3.0,4.0,75,0.00,,---,0.00,VWS V14.01,2013-01-13 02:46:00,
2013-01-12 20:51:00,8.1,1.8,30.16,West,281,1.0,4.0,75,0.00,,---,0.00,VWS V14.01,2013-01-13 02:51:00,
2013-01-12 20:56:00,8.1,1.8,30.17,West,273,3.0,6.0,75,0.00,,---,0.00,VWS V14.01,2013-01-13 02:56:00,
2013-01-12 21:01:00,8.0,1.7,30.16,WNW,293,1.0,5.0,75,0.00,,---,0.00,VWS V14.01,2013-01-13 03:01:00,
2013-01-12 21:06:00,7.9,1.6,30.16,WSW,256,3.0,8.0,75,0.00,,---,0.00,VWS V14.01,2013-01-13 03:06:00,
2013-01-12 21:11:00,7.9,1.6,30.15,WNW,296,2.0,8.0,75,0.00,,---,0.00,VWS V14.01,2013-01-13 03:11:00,
2013-01-12 21:16:00,7.9,1.9,30.15,NW,306,2.0,4.0,76,0.00,,---,0.00,VWS V14.01,2013-01-13 03:16:00,
2013-01-12 21:21:00,7.9,1.9,30.15,WNW,303,3.0,6.0,76,0.00,,---,0.00,VWS V14.01,2013-01-13 03:21:00,
2013-01-12 21:26:00,7.6,1.6,30.16,WNW,296,1.0,9.0,76,0.00,,---,0.00,VWS V14.01,2013-01-13 03:26:00,
2013-01-12 21:31:00,7.4,1.4,30.16,NW,308,3.0,5.0,76,0.00,,---,0.00,VWS V14.01,2013-01-13 03:31:00,
2013-01-12 21:36:00,7.2,1.2,30.16,West,280,1.0,5.0,76,0.00,,---,0.00,VWS V14.01,2013-01-13 03:36:00,
2013-01-12 21:41:00,7.0,0.8,30.15,NW,322,4.0,6.0,75,0.00,,---,0.00,VWS V14.01,2013-01-13 03:41:00,
2013-01-12 21:46:00,6.8,0.3,30.16,SW,234,2.0,6.0,74,0.00,,---,0.00,VWS V14.01,2013-01-13 03:46:00,
2013-01-12 21:51:00,6.7,0.2,30.17,NW,324,2.0,6.0,74,0.00,,---,0.00,VWS V14.01,2013-01-13 03:51:00,
2013-01-12 21:56:00,6.6,0.1,30.15,WNW,289,3.0,6.0,74,0.00,,---,0.00,VWS V14.01,2013-01-13 03:56:00,
2013-01-12 22:01:00,6.5,0.0,30.15,WNW,291,2.0,5.0,74,0.00,,---,0.00,VWS V14.01,2013-01-13 04:01:00,
2013-01-12 22:06:00,6.3,-0.2,30.15,WNW,290,0.0,5.0,74,0.00,,---,0.00,VWS V14.01,2013-01-13 04:06:00,
2013-01-12 22:11:00,6.3,0.1,30.15,WNW,294,1.0,6.0,75,0.00,,---,0.00,VWS V14.01,2013-01-13 04:11:00,
2013-01-12 22:16:00,6.2,-0.3,30.16,WNW,303,1.0,4.0,74,0.00,,---,0.00,VWS V14.01,2013-01-13 04:16:00,
2013-01-12 22:21:00,6.1,-0.1,30.16,NNW,344,1.0,4.0,75,0.00,,---,0.00,VWS V14.01,2013-01-13 04:21:00,
2013-01-12 22:26:00,6.1,-0.1,30.15,West,275,1.0,4.0,75,0.00,,---,0.00,VWS V14.01,2013-01-13 04:26:00,
2013-01-12 22:31:00,6.1,-0.1,30.15,WNW,302,3.0,4.0,75,0.00,,---,0.00,VWS V14.01,2013-01-13 04:31:00,
2013-01-12 22:36:00,5.9,-0.3,30.16,West,263,2.0,6.0,75,0.00,,---,0.00,VWS V14.01,2013-01-13 04:36:00,
2013-01-12 22:41:00,5.8,-0.4,30.16,WNW,284,4.0,6.0,75,0.00,,---,0.00,VWS V14.01,2013-01-13 04:41:00,
2013-01-12 22:46:00,5.7,-0.5,30.15,NW,310,0.0,4.0,75,0.00,,---,0.00,VWS V14.01,2013-01-13 04:46:00,
2013-01-12 22:51:00,5.7,-0.5,30.16,NW,308,0.0,4.0,75,0.00,,---,0.00,VWS V14.01,2013-01-13 04:51:00,
2013-01-12 22:56:00,5.7,-0.2,30.16,WNW,287,4.0,5.0,76,0.00,,---,0.00,VWS V14.01,2013-01-13 04:56:00,
2013-01-12 23:00:00,5.6,-0.3,30.16,NW,315,3.0,7.0,76,0.00,,---,0.00,VWS V14.01,2013-01-13 05:00:00,
2013-01-12 23:03:00,5.6,-0.6,30.16,West,281,2.0,7.0,75,0.00,,---,0.00,VWS V14.01,2013-01-13 05:03:00,
2013-01-12 23:08:00,5.5,-0.7,30.16,WNW,287,3.0,8.0,75,0.00,,---,0.00,VWS V14.01,2013-01-13 05:08:00,
2013-01-12 23:13:00,5.4,-0.5,30.15,WNW,302,4.0,5.0,76,0.00,,---,0.00,VWS V14.01,2013-01-13 05:13:00,
2013-01-12 23:18:00,5.4,-0.5,30.15,WNW,295,3.0,5.0,76,0.00,,---,0.00,VWS V14.01,2013-01-13 05:18:00,
2013-01-12 23:23:00,5.4,-0.5,30.16,WNW,284,1.0,6.0,76,0.00,,---,0.00,VWS V14.01,2013-01-13 05:23:00,
2013-01-12 23:28:00,5.3,-0.6,30.15,WNW,298,2.0,3.0,76,0.00,,---,0.00,VWS V14.01,2013-01-13 05:28:00,
2013-01-12 23:33:00,5.2,-0.7,30.15,NW,317,1.0,4.0,76,0.00,,---,0.00,VWS V14.01,2013-01-13 05:33:00,
2013-01-12 23:38:00,5.1,-0.8,30.16,WNW,299,1.0,4.0,76,0.00,,---,0.00,VWS V14.01,2013-01-13 05:38:00,
2013-01-12 23:43:00,5.0,-0.9,30.16,WNW,303,1.0,3.0,76,0.00,,---,0.00,VWS V14.01,2013-01-13 05:43:00,
2013-01-12 23:48:00,5.0,-0.9,30.16,WNW,299,1.0,3.0,76,0.00,,---,0.00,VWS V14.01,2013-01-13 05:48:00,
2013-01-12 23:53:00,4.9,-1.0,30.16,WNW,289,1.0,7.0,76,0.00,,---,0.00,VWS V14.01,2013-01-13 05:53:00,
2013-01-12 23:58:00,4.8,-1.1,30.16,NW,320,2.0,2.0,76,0.00,,---,0.00,VWS V14.01,2013-01-13 05:58:00,